Погода в Шалажах

Россия / Чеченская Республика     43°05′42″N   45°21′30″E
темп.,
°C
ветер,
м/с
пор.,
м/с
влажн.,
%
обл.,
%
осадки,
мм/ч
давл.,
гПа
погр.,
м
14 июня, пн
пн1400:00+10ююз32780 0.0 101431
03:00+11ююз32720 0.0 101424
06:00+14ююз11710 0.0 101448
09:00+19ссв22570 0.0 1012901
12:00+21ссв335830 0.0 10121240
15:00+20ссв326656 0.1 10121017
18:00+19св237519 0.1 1012533
21:00+14ю32890 0.2 101333
15 июня, вт
вт1500:00+14ю32830 0.0 101234
03:00+14ююз32701 0.0 101026
06:00+16ююз117090 0.0 101035
09:00+20ссз336411 0.0 1010715
12:00+22с336115 0.0 10091007
15:00+23ссв326527 0.4 10101024
18:00+21с127711 0.3 1011304
21:00+16ююз32890 0.5 101330
16 июня, ср
ср1600:00+15ю32830 0.0 101230
03:00+15ю32780 0.0 101229
06:00+17ю12750 0.0 101155
09:00+22св22570 0.0 1009598
12:00+25ссв34540 0.0 10081061
15:00+26св33571 0.0 1008914
18:00+23св22740 0.1 1009293
21:00+17ююз22860 0.1 101019
17 июня, чт
чт1700:00+17ююз32670 0.0 100927
03:00+16ююз32651 0.0 100927
06:00+18ю226954 0.0 100844
09:00+24ссв22490 0.0 1006615
12:00+25с445821 0.0 10081177
15:00+21зсз567881 0.6 1011920
18:00+18зюз368734 0.9 1014337
21:00+16юз34894 1.4 1016101
18 июня, пт
пт1800:00+15юз35880 0.0 1017142
03:00+15юз468918 0.0 1017237
06:00+17зюз35853 0.0 1018312
09:00+21зсз44627 0.0 10171057
12:00+21сз447360 0.8 10181028
15:00+18зсз249175 4.2 1019529
18:00+18зсз128726 1.4 1019263
21:00+15юз219534 1.8 102118